Location: Cactus School
(34.5700°N, 118.0931°W)
Time: 13:54:04
(UTC-08:00)

Tiros 1 - Pass Details

Date: 01 December 2019
Orbit: 630 x 664 km, 48.4° (Epoch: 14 December)

Event Time Altitude Azimuth Distance (km) Brightness Sun altitude
Rises 13:51:15 0° 313° (NW) 2,918 10.4 25.7°
Reaches altitude 10° 13:54:00 10° 328° (NNW) 2,008 9.5 25.4°
Maximum altitude 13:57:40 23° 21° (NNE) 1,351 8.5 25.0°
Drops below altitude 10° 14:01:20 10° 73° (ENE) 2,007 9.3 24.5°
Sets 14:04:04 0° 89° (E) 2,916 10.2 24.2°
